Preview of NWS' New Version of Forecast
This preview is not operational and should not be used for support decisions.

Regional Weather Roundup (RWR)

Issued by National Weather Service (NWS)

                            
000
ASUS44 KJAN 180810
RWRMS 

MISSISSIPPI HOURLY WEATHER ROUNDUP
NATIONAL WEATHER SERVICE JACKSON MS
300 AM CDT THU APR 18 2019

NOTE: "FAIR: INDICATES FEW OR NO CLOUDS BELOW 12,000 FEET WITH NO
SIGNIFICANT WEATHER AND/OR OBSTRUCTIONS TO VISIBILITY.

MSZ001>002-007>008-010>013-018>021-025>028-034>036-180900-
NORTHWEST MISSISSIPPI
  
CITY           SKY/WX    TMP DP  RH WIND       PRES   REMARKS
BATESVILLE       N/A     61  59  94 S6        29.78F                  
CLARKSDALE     CLOUDY    68  68 100 SE13      29.75F                  
CLEVELAND      CLOUDY    66  65  98 S13       29.76F                  
GREENWOOD      CLOUDY    65  61  87 S10       29.79F                  
GREENVILLE     FAIR      67  62  84 S8        29.76F                  
OLIVE BRANCH   CLOUDY    61  63 100 S12       29.75F FOG              
OXFORD         FAIR      61  57  88 SE8       29.82F                  
TUNICA           N/A     63  59  88 SE10      29.76F                  
WINONA         CLOUDY    62  61  96 S7        29.81F                  
$$

MSZ003>006-009-014>017-022>024-029>033-037>039-180900-
NORTHEAST MISSISSIPPI
  
CITY           SKY/WX    TMP DP  RH WIND       PRES   REMARKS
ABERDEEN       FAIR      61  61 100 S5        29.85F                  
COLUMBUS AFB   FAIR      64  59  84 S12       29.84F                  
CORINTH        FAIR      61  55  82 S6        29.81F                  
GOLDN TRIANGLE FAIR      63  59  87 S9        29.85F                  
STARKVILLE     PTSUNNY   61  57  88 S3        29.86S                  
TUPELO         FAIR      58  55  90 S3        29.83F                  
$$

MSZ040-058-180900-
CENTRAL MISSISSIPPI
  
CITY           SKY/WX    TMP DP  RH WIND       PRES   REMARKS
JACKSON INTL   MOCLDY    65  60  84 S9        29.83F                  
JACKSON HAWKNS FAIR      65  62  90 S12       29.84S                  
MADISON        PTSUNNY   64  63  94 S9G16     29.83F                  
MERIDIAN KEY   FAIR      65  60  84 S6        29.85F                  
MERIDIAN NAS   MOCLDY    65  62  90 SE6       29.85F                  
RAYMOND        PTSUNNY   66  66 100 S6G12     29.83S                  
VICKSBURG VKS  CLOUDY    68  64  88 SE8       29.80F                  
$$

MSZ059>079-180900-
SOUTH MISSISSIPPI
  
CITY           SKY/WX    TMP DP  RH WIND       PRES   REMARKS
HATTIESBURG    CLOUDY    69  64  84 S7        29.85S                  
LAUREL         CLOUDY    67  64  89 S6        29.85F                  
MCCOMB         FAIR      64  60  87 SE3       29.83F                  
NATCHEZ        CLOUDY    68  64  87 S13       29.78F                  
PINE BELT      CLOUDY    67  64  90 S5        29.86F                  
$$

MSZ080>082-180900-
COASTAL MISSISSIPPI
  
CITY           SKY/WX    TMP DP  RH WIND       PRES   REMARKS
BILOXI         CLOUDY    71  69  92 S15G24    29.81F                  
PASCAGOULA     MOCLDY    72  67  84 SE18G24   29.84F                  
GULFPORT       MOCLDY    71  68  90 SE22G30   29.81F                  
$$

LAZ007>009-015>016-023>026-180900-
NORTHEAST LOUISIANA
  
CITY           SKY/WX    TMP DP  RH WIND       PRES   REMARKS
BASTROP        CLOUDY    69  68  96 SE7       29.71F                  
TALLULAH/VBURG CLOUDY    67  62  84 SE12      29.78F                  
VIDALIA        CLOUDY    68  64  86 SE16      29.75F                  
$$